Saint Regis, MT

6:01 PM MST on December 05, 2016 (GMT -0700)
Mullan Pass

Weather History for KMLP - March, 2013

Change the Weather History Date:

Monday, March 4, 2013

  Actual Average (K3TH) Record (K3TH)
Temperature  
Mean Temperature 18 °F -  
Max Temperature 24 °F 39 °F 51 °F (2001)
Min Temperature 12 °F 26 °F 23 °F (2001)
Degree Days  
Heating Degree Days 47    
Moisture  
Dew Point 13 °F    
Average Humidity 79    
Maximum Humidity 88    
Minimum Humidity 62    
Precipitation  
Precipitation 0.00 in - - ()
Sea Level Pressure  
Sea Level Pressure 30.23 in    
Wind  
Wind Speed 5 mph (SE)    
Max Wind Speed 12 mph    
Max Gust Speed 20 mph    
Visibility 10 miles    
Events      
Averages and records for this station are not official NWS values.
T = Trace of Precipitation, MM = Missing Value Source: NWS Daily Summary

Daily Weather History Graph

Daily Weather History Graph

Search for Another Location

Airport or City:

Trip Planner

Search our weather history database for the weather conditions in past years. The results will help you decide how hot, cold, wet, or windy it might be!

Date:

Astronomy

Mar. 04, 2013 Rise Set
Actual Time 6:16 AM PST 5:32 PM PST
Civil Twilight 5:45 AM PST 6:03 PM PST
Nautical Twilight 5:10 AM PST 6:38 PM PST
Astronomical Twilight 4:34 AM PST 7:14 PM PST
Moon 12:48 AM PST (3/4) 10:00 AM PST (3/4)
Length of Visible Light 12h 17m
Length of Day
11h 16m
Waning Gibbous, 51% of the Moon is Illuminated
Mar 4
Waning Gibbous
Mar 4
Last Quarter
Mar 11
New
Mar 19
First Quarter
Mar 27
Full

Hourly Weather History & Observations

Time (PST) Temp. Windchill Dew Point Humidity Pressure Visibility Wind Dir Wind Speed Gust Speed Precip Events Conditions
12:53 AM 15.1 °F 9.4 °F 10.9 °F 84% 30.22 in 10.0 mi Variable 3.5 mph - N/A   Partly Cloudy
1:53 AM 12.9 °F 5.2 °F 10.0 °F 88% 30.23 in 10.0 mi Variable 4.6 mph - N/A   Clear
2:53 AM 14.0 °F 5.1 °F 10.0 °F 84% 30.24 in 10.0 mi Variable 5.8 mph - N/A   Clear
3:53 AM 14.0 °F 6.5 °F 9.0 °F 80% 30.25 in 10.0 mi Variable 4.6 mph - N/A   Clear
4:53 AM 14.0 °F 3.9 °F 9.0 °F 80% 30.25 in 10.0 mi ESE 6.9 mph - N/A   Clear
6:53 AM 14.0 °F - 10.9 °F 88% 30.28 in - North - - N/A   Unknown
7:53 AM 16.0 °F 6.3 °F 10.9 °F 81% 30.29 in 10.0 mi ESE 6.9 mph - N/A   Clear
8:53 AM 17.1 °F 10.0 °F 14.0 °F 88% 30.31 in 10.0 mi Variable 4.6 mph - N/A   Clear
9:10 AM 17.6 °F 10.7 °F 14.0 °F 86% 30.11 in 10.0 mi Variable 4.6 mph - N/A   Partly Cloudy
9:50 AM 19.4 °F 11.5 °F 15.8 °F 86% 30.11 in 10.0 mi Variable 5.8 mph - N/A   Mostly Cloudy
9:53 AM 19.0 °F 13.9 °F 15.1 °F 85% 30.31 in 10.0 mi Variable 3.5 mph - N/A   Mostly Cloudy
10:53 AM 21.0 °F 13.4 °F 16.0 °F 81% 30.31 in 10.0 mi Variable 5.8 mph - N/A   Mostly Cloudy
11:01 AM 21.2 °F 14.9 °F 15.8 °F 80% 30.12 in 10.0 mi Variable 4.6 mph - N/A   Scattered Clouds
11:53 AM 23.0 °F 18.4 °F 15.1 °F 72% 30.29 in - Variable 3.5 mph - N/A   Clear
12:53 PM 24.1 °F 19.7 °F 14.0 °F 65% 30.26 in 10.0 mi Variable 3.5 mph - N/A   Mostly Cloudy
1:39 PM 24.8 °F 20.5 °F 14.0 °F 64% 30.07 in 10.0 mi Variable 3.5 mph - N/A   Mostly Cloudy
1:53 PM 24.1 °F - 15.1 °F 69% 30.26 in 10.0 mi Calm Calm - N/A   Mostly Cloudy
2:53 PM 24.1 °F 18.2 °F 12.9 °F 62% 30.25 in 10.0 mi Variable 4.6 mph - N/A   Mostly Cloudy
3:53 PM 23.0 °F 17.0 °F 15.1 °F 72% 30.24 in 10.0 mi ESE 4.6 mph - N/A   Overcast
4:53 PM 21.9 °F 15.7 °F 16.0 °F 78% 30.25 in 10.0 mi Variable 4.6 mph - N/A   Overcast
5:53 PM 19.0 °F 8.2 °F 12.9 °F 77% 30.24 in 10.0 mi ESE 9.2 mph - N/A   Clear
6:53 PM 18.0 °F 6.9 °F 12.9 °F 81% 30.24 in 10.0 mi ESE 9.2 mph 16.1 mph N/A   Clear
7:53 PM 18.0 °F 6.9 °F 12.9 °F 81% 30.21 in 10.0 mi SE 9.2 mph 19.6 mph N/A   Clear
8:53 PM 17.1 °F 5.0 °F 12.0 °F 81% 30.20 in 10.0 mi SE 10.4 mph 18.4 mph N/A   Clear
9:53 PM 17.1 °F 4.3 °F 12.0 °F 81% 30.19 in 10.0 mi SSE 11.5 mph - N/A   Clear
11:53 PM 16.0 °F 4.4 °F 12.0 °F 84% 30.14 in 10.0 mi SE 9.2 mph - N/A   Clear